Horror News №9первые в этом году
Акции от АМСищем вампиров

Arkham

Информация о пользователе

Привет, Гость! Войдите или зарегистрируйтесь.


Вы здесь » Arkham » Сгоревшие рукописи


Сгоревшие рукописи

Тем 691 страница 720 из 806

Тема Ответов Просмотров Последнее сообщение
1 476 20-01-2019 19:44:21  Magenta Everhart
692 [AU] oh, what fun it is to collide  Roderick Ambrose
2 64 20-01-2019 14:08:37  Roderick Ambrose
693 [AU] Life in da Trash  Roderick Ambrose
3 59 20-01-2019 13:44:00  Roderick Ambrose
694 Stop me  Abigail Henderson
2 100 20-01-2019 01:14:22  Roy Patterson
695 homecoming  Vendetta Marlowe
2 73 19-01-2019 18:22:31  Vendetta Marlowe
696 Алисия Мур, маг  Alycia Moore
1 747 19-01-2019 17:36:16  Alycia Moore
697 [AU] wastelands  Valerie Delaney
2 187 19-01-2019 14:58:16  Valerie Delaney
698 Hello, my dear  Abigail Henderson
0 33 19-01-2019 08:30:50  Abigail Henderson
0 185 17-01-2019 01:22:06  Samuel Norman
1 422 16-01-2019 22:35:56  Persephone Whitefern
6 361 15-01-2019 19:48:13  Andrei Nightshade
1 277 15-01-2019 12:16:40  Kyle Nightshade
6 384 14-01-2019 03:15:05  Sebastian Valentine
1 210 13-01-2019 21:09:07  Arkham Horror
0 282 13-01-2019 17:41:45  Mortimer Sage
2 207 11-01-2019 17:58:04  Amelia Lestrange
707 troubles in el-paso  Harvey Ryker
3 177 10-01-2019 20:53:13  Rosalinda Martinez
1 223 10-01-2019 20:30:02  Benjamin Thorne
709 Bad good fairytale  Roderick Ambrose
5 323 09-01-2019 18:13:08  Roderick Ambrose
0 232 09-01-2019 18:01:23  Markus Everett
0 186 09-01-2019 17:21:44  Gwendolyn Nightshade
712 save me  Margaret Fontaine
1 66 09-01-2019 15:17:14  Magnus Rodricks
713 i want to see you smile  Baldassare Gonzalez
2 73 08-01-2019 09:20:34  Baldassare Gonzalez
714 я вас не звал  Luka Gonzalez
5 396 08-01-2019 02:32:32  Luka Gonzalez
11 411 07-01-2019 23:38:46  Oliver Templeton
716 [AU] Dead Black Heart  Roderick Ambrose
1 54 07-01-2019 18:14:31  Alfie Virgil
0 688 07-01-2019 16:19:50  Warren Graham
1 353 07-01-2019 08:24:45  Baldassare Gonzalez
719 Вивьен Мур, маг  Vivien Moore
0 283 06-01-2019 03:39:00  Vivien Moore
720 If you can’t be good, be careful  Baldassare Gonzalez
1 82 05-01-2019 21:53:25  Baldassare Gonzalez

Вы здесь » Arkham » Сгоревшие рукописи